Skip Page Navigation
NASA JPL Caltech
NASA Logo - Jet Propulsion Laboratory + View the NASA Portal
+ Center for Near-Earth Object Studies
JPL Home Earth Solar System Stars & Galaxies Technology
JPL Solar System Dynamics
BODIES ORBITS EPHEMERIDES TOOLS PHYSICAL DATA DISCOVERY FAQ SITE MAP
JPL Small-Body Database Browser
Search: [ help ]  
362321 (2010 BC125)
Classification: Jupiter Trojan          SPK-ID: 2362321
Ephemeris | Orbit Diagram | Orbital Elements | Mission Design | Physical Parameters | Discovery Circumstances ]

[ show orbit diagram ]
Orbital Elements at Epoch 2459396.5 (2021-Jul-01.0) TDB
Reference: JPL 21 (heliocentric ecliptic J2000)
 Element Value Uncertainty (1-sigma)   Units 
e .07507481087805809 8.2784e-08  
a 5.229045302095186 2.3344e-07 au
q 4.836475714967592 5.6878e-07 au
i 26.97388511331687 6.9928e-06 deg
node 173.9876856804461 1.1128e-05 deg
peri 232.2764975550103 4.9975e-05 deg
M 358.2560436471707 4.4074e-05 deg
tp 2459417.657538704398
(2021-Jul-22.15753870)
0.00053391 TDB
period 4367.491148058805
11.96
0.00029247
8.007e-07
d
yr
n .08242718480608877 5.5197e-09 deg/d
Q 5.621614889222781 2.5097e-07 au
  Orbit Determination Parameters
   # obs. used (total)      272  
   data-arc span      6893 days (18.87 yr)  
   first obs. used      2002-02-24  
   last obs. used      2021-01-08  
   planetary ephem.      DE441  
   SB-pert. ephem.      SB441-N16  
   condition code      0  
   norm. resid. RMS      .5158  
   source      ORB  
   producer      Otto Matic  
   solution date      2021-Apr-14 09:39:05  

Additional Information
 Earth MOID = 3.89683 au 
 Jupiter MOID = .00452721 au 
 T_jup = 2.777 
[ show covariance matrix ]

Ephemeris | Orbit Diagram | Orbital Elements | Mission Design | Physical Parameters | Discovery Circumstances ]

Physical Parameter Table
Parameter Symbol Value Units Sigma Reference Notes
absolute magnitude H 13.21   n/a MPCxxxxx  

362321 (2010 BC125)          Discovered 2004-May-14 by Spacewatch at Kitt Peak
Reference: Last Updated: 2013-04-29

Alternate Designations
 2010 BC125 = 2004 JF42 = 2008 TF178 = 2013 CU186 
Ephemeris | Orbit Diagram | Orbital Elements | Mission Design | Physical Parameters | Discovery Circumstances ]
ABOUT SSD CREDITS/AWARDS PRIVACY/COPYRIGHT GLOSSARY LINKS
FirstGov 2021-Jul-31 19:01 UT
(server date/time)  
NASA Home Page
Site Manager:   Ryan S. Park
Webmaster  Alan B. Chamberlin